This is the latest recevied weather packets stored in our database for station/object EA3KZ-1. If no packets are shown the sender has not sent any weather packets the latest 10 day(s).
| Time | Temp. | Humidity | Pressure | Rain* | Wind** | Luminosity | Snow |
|---|---|---|---|---|---|---|---|
| 1787751969 | 30° C | 53% | 1008.9 hPa | 0 mm | - | - | - |
| 1787751366 | 28.89° C | 55% | 1008.8 hPa | 0 mm | - | - | - |
| 1787750763 | 27.78° C | 59% | 1009 hPa | 0 mm | - | - | - |
| 1787750161 | 27.78° C | 59% | 1008.9 hPa | 0 mm | - | - | - |
| 1787749558 | 27.78° C | 62% | 1009.1 hPa | 0 mm | - | - | - |
| 1787748956 | 27.22° C | 64% | 1009.3 hPa | 0 mm | - | - | - |
| 1787748353 | 27.22° C | 64% | 1009.4 hPa | 0 mm | - | - | - |
| 1787747750 | 27.22° C | 63% | 1009.7 hPa | 0 mm | - | - | - |
| 1787747148 | 27.22° C | 60% | 1010 hPa | 0 mm | - | - | - |
| 1787746545 | 26.67° C | 64% | 1010.4 hPa | 0 mm | - | - | - |
| 1787745943 | 26.67° C | 70% | 1010.8 hPa | 0 mm | - | - | - |
| 1787745340 | 26.67° C | 71% | 1010.7 hPa | 0 mm | - | - | - |
| 1787744738 | 26.67° C | 73% | 1011.2 hPa | 0 mm | - | - | - |
| 1787744135 | 26.11° C | 74% | 1011.5 hPa | 0 mm | - | - | - |
| 1787743532 | 26.11° C | 75% | 1011.3 hPa | 0 mm | - | - | - |
| 1787742930 | 26.11° C | 75% | 1011 hPa | 0 mm | - | - | - |
| 1787742327 | 26.11° C | 73% | 1010.9 hPa | 0 mm | - | - | - |
| 1787741725 | 26.11° C | 73% | 1011 hPa | 0 mm | - | - | - |
| 1787741122 | 26.11° C | 72% | 1011.3 hPa | 0 mm | - | - | - |
| 1787740519 | 25.56° C | 74% | 1011.2 hPa | 0 mm | - | - | - |
| 1787739917 | 25.56° C | 75% | 1011.5 hPa | 0 mm | - | - | - |
| 1787739374 | 25.56° C | 75% | 1011.8 hPa | 0 mm | - | - | - |
| 1787738772 | 25.56° C | 74% | 1012 hPa | 0 mm | - | - | - |
| 1787738169 | 25° C | 74% | 1011.1 hPa | 0 mm | - | - | - |
| 1787737567 | 24.44° C | 75% | 1010.3 hPa | 0 mm | - | - | - |
* Rain latest hour (hover to see other rain measurements)
** Current wind speed in m/s (hover to see current wind gust speed)